Location: Peterborough
(44.3091°N, 78.3197°W)
Time: 05:49:41
(UTC-04:00)

Vanguard 3 - Pass Details

Date: 25 February 2024
Orbit: 510 x 3236 km, 33.3° (Epoch: 12 April)

Event Time Altitude Azimuth Distance (km) Brightness Sun altitude
Rises 02:18:58 0° 276° (W) 6,877 - -47.3°
Reaches altitude 10° 02:24:40 10° 269° (W) 5,534 - -46.6°
Maximum altitude 02:37:11 31° 216° (SW) 3,107 - -45.0°
Drops below altitude 10° 02:45:25 10° 158° (SSE) 3,580 - -43.8°
Sets 02:48:15 0° 148° (SSE) 4,217 - -43.4°
